カタログに戻る

SL-3 R/B

運用中PO
NORAD 5118·ROCKET BODY·🇷🇺 Russia

打ち上げ Apr 7, 1971 から Plesetsk Cosmodrome

Loading…

次のパス (今後24時間)

TLE

最新Source: Space-Track

元期: Sep 14, 2026, 13:15 UTC

1 05118U 71028B   26257.55232314  .00077125  00000-0  42004-3 0  9995
2 05118  81.2296 175.7412 0007528 343.0141  17.0868 15.79639439 18308

AllMySatでSL-3 R/Bをリアルタイム追跡

Download on the App Store